| time (UTC) | temp C | wind direction | speed KPH | gust KPH | rain 1hr cm | rain 24hr cm | rain mn cm | humidity % | barometer mb |
| 20260505225138 | 12 | 271 | 16.1 | 20.9 | 0.00 | 0.00 | 0.00 | 40 | 1008.8 |
| 20260505224138 | 12 | 290 | 12.9 | 22.5 | 0.00 | 0.00 | 0.00 | 38 | 1008.8 |
| 20260505223138 | 12 | 304 | 16.1 | 20.9 | 0.00 | 0.00 | 0.00 | 38 | 1008.8 |
| 20260505222138 | 12 | 281 | 4.8 | 20.9 | 0.00 | 0.00 | 0.00 | 38 | 1008.7 |
| 20260505221138 | 12 | 276 | 12.9 | 24.1 | 0.00 | 0.00 | 0.00 | 38 | 1008.8 |
| 20260505220138 | 12 | 286 | 14.5 | 25.7 | 0.00 | 0.05 | 0.00 | 39 | 1008.7 |
| 20260505214138 | 12 | 298 | 12.9 | 20.9 | 0.00 | 0.05 | 0.00 | 37 | 1009.0 |
| 20260505211138 | 12 | 277 | 12.9 | 22.5 | 0.00 | 0.05 | 0.00 | 38 | 1008.8 |
| 20260505210137 | 12 | 259 | 17.7 | 24.1 | 0.00 | 0.05 | 0.00 | 36 | 1008.9 |
| 20260505205137 | 13 | 309 | 6.4 | 25.7 | 0.00 | 0.05 | 0.00 | 37 | 1008.8 |
| 20260505204138 | 12 | 276 | 14.5 | 22.5 | 0.00 | 0.05 | 0.00 | 35 | 1008.8 |
| 20260505203138 | 12 | 286 | 19.3 | 25.7 | 0.00 | 0.05 | 0.00 | 34 | 1008.8 |
| 20260505202138 | 12 | 284 | 6.4 | 22.5 | 0.00 | 0.05 | 0.00 | 36 | 1009.0 |
| 20260505201137 | 12 | 279 | 8.0 | 22.5 | 0.00 | 0.05 | 0.00 | 39 | 1009.0 |
| 20260505195137 | 13 | 298 | 11.3 | 30.6 | 0.00 | 0.05 | 0.00 | 36 | 1009.3 |
| 20260505194138 | 13 | 243 | 14.5 | 24.1 | 0.00 | 0.05 | 0.00 | 36 | 1009.3 |
| 20260505192138 | 12 | 261 | 14.5 | 20.9 | 0.00 | 0.05 | 0.00 | 38 | 1009.2 |
| 20260505191137 | 13 | 213 | 9.7 | 27.4 | 0.00 | 0.05 | 0.00 | 35 | 1009.6 |
| 20260505185137 | 13 | 218 | 12.9 | 27.4 | 0.00 | 0.05 | 0.00 | 34 | 1009.4 |
| 20260505184137 | 13 | 219 | 17.7 | 24.1 | 0.00 | 0.05 | 0.00 | 34 | 1009.4 |
| 20260505183138 | 12 | 232 | 9.7 | 22.5 | 0.00 | 0.05 | 0.00 | 36 | 1009.3 |
| 20260505182138 | 13 | 273 | 19.3 | 27.4 | 0.00 | 0.05 | 0.00 | 32 | 1009.2 |
| 20260505181137 | 13 | 209 | 11.3 | 24.1 | 0.00 | 0.05 | 0.00 | 35 | 1009.3 |
| 20260505180137 | 13 | 234 | 17.7 | 30.6 | 0.00 | 0.05 | 0.00 | 36 | 1009.2 |
| 20260505175137 | 13 | 231 | 24.1 | 24.1 | 0.00 | 0.05 | 0.00 | 37 | 1009.1 |
| 20260505174137 | 13 | 330 | 8.0 | 27.4 | 0.00 | 0.05 | 0.00 | 34 | 1009.1 |
| 20260505173137 | 12 | 240 | 4.8 | 20.9 | 0.00 | 0.05 | 0.00 | 35 | 1009.1 |
| 20260505172138 | 12 | 284 | 16.1 | 27.4 | 0.00 | 0.05 | 0.00 | 37 | 1008.9 |
| 20260505164137 | 12 | 281 | 11.3 | 27.4 | 0.00 | 0.05 | 0.00 | 39 | 1009.1 |
| 20260505163137 | 11 | 261 | 9.7 | 27.4 | 0.00 | 0.05 | 0.00 | 42 | 1008.8 |
| 20260505161137 | 11 | 265 | 11.3 | 19.3 | 0.00 | 0.05 | 0.00 | 41 | 1008.7 |
| 20260505160137 | 11 | 295 | 16.1 | 29.0 | 0.00 | 0.05 | 0.00 | 39 | 1008.8 |
| 20260505153137 | 11 | 269 | 11.3 | 17.7 | 0.00 | 0.05 | 0.00 | 43 | 1008.6 |
| 20260505151137 | 10 | 270 | 12.9 | 19.3 | 0.00 | 0.05 | 0.00 | 41 | 1008.8 |
| 20260505150137 | 10 | 284 | 14.5 | 19.3 | 0.00 | 0.05 | 0.00 | 41 | 1008.9 |
| 20260505130137 | 8 | 281 | 4.8 | 11.3 | 0.00 | 0.05 | 0.00 | 53 | 1009.0 |
| 20260505124137 | 8 | 284 | 8.0 | 12.9 | 0.00 | 0.05 | 0.00 | 54 | 1008.8 |
| 20260505123137 | 8 | 280 | 4.8 | 14.5 | 0.00 | 0.05 | 0.00 | 55 | 1008.5 |
| 20260505122138 | 8 | 292 | 6.4 | 16.1 | 0.00 | 0.05 | 0.00 | 56 | 1008.6 |
| 20260505121137 | 8 | 279 | 4.8 | 12.9 | 0.00 | 0.05 | 0.00 | 58 | 1008.8 |
| 20260505120137 | 8 | 290 | 6.4 | 8.0 | 0.00 | 0.05 | 0.00 | 57 | 1008.4 |
| 20260505115137 | 8 | 254 | 3.2 | 8.0 | 0.00 | 0.05 | 0.00 | 56 | 1009.0 |
| 20260505114137 | 8 | 290 | 4.8 | 9.7 | 0.00 | 0.05 | 0.00 | 53 | 1008.8 |
| 20260505113137 | 8 | 263 | 4.8 | 14.5 | 0.00 | 0.05 | 0.00 | 53 | 1008.3 |
| 20260505112137 | 8 | 288 | 3.2 | 9.7 | 0.00 | 0.05 | 0.00 | 55 | 1007.6 |
| 20260505111137 | 8 | 252 | 3.2 | 12.9 | 0.00 | 0.05 | 0.00 | 53 | 1007.3 |
| 20260505110137 | 8 | 328 | 4.8 | 12.9 | 0.00 | 0.05 | 0.00 | 53 | 1006.8 |
| 20260505102137 | 8 | 286 | 4.8 | 9.7 | 0.00 | 0.05 | 0.00 | 55 | 1007.3 |
| 20260505101137 | 8 | 325 | 6.4 | 16.1 | 0.00 | 0.05 | 0.00 | 55 | 1007.3 |
| 20260505100137 | 8 | 298 | 9.7 | 14.5 | 0.00 | 0.05 | 0.00 | 55 | 1006.5 |
| 20260505095137 | 9 | 321 | 6.4 | 16.1 | 0.00 | 0.05 | 0.00 | 54 | 1006.3 |
| 20260505094137 | 9 | 311 | 4.8 | 17.7 | 0.00 | 0.05 | 0.00 | 53 | 1006.6 |
| 20260505093137 | 9 | 308 | 11.3 | 19.3 | 0.00 | 0.05 | 0.00 | 53 | 1006.6 |
| 20260505092137 | 10 | 341 | 12.9 | 25.7 | 0.00 | 0.05 | 0.00 | 53 | 1006.4 |
| 20260505091137 | 10 | 286 | 6.4 | 14.5 | 0.00 | 0.05 | 0.00 | 52 | 1006.0 |
| 20260505090137 | 10 | 311 | 6.4 | 16.1 | 0.00 | 0.05 | 0.00 | 53 | 1006.2 |
| 20260505085137 | 10 | 318 | 4.8 | 17.7 | 0.00 | 0.05 | 0.00 | 53 | 1006.1 |
| 20260505084137 | 10 | 296 | 6.4 | 17.7 | 0.00 | 0.05 | 0.00 | 54 | 1005.7 |
| 20260505083137 | 10 | 313 | 11.3 | 16.1 | 0.00 | 0.05 | 0.00 | 52 | 1005.8 |
| 20260505082137 | 10 | 322 | 11.3 | 19.3 | 0.00 | 0.05 | 0.00 | 51 | 1005.4 |
| 20260505081137 | 11 | 333 | 11.3 | 24.1 | 0.00 | 0.05 | 0.00 | 50 | 1005.2 |
| 20260505080137 | 11 | 334 | 11.3 | 30.6 | 0.00 | 0.05 | 0.00 | 50 | 1004.8 |
| 20260505075137 | 11 | 292 | 9.7 | 19.3 | 0.00 | 0.05 | 0.00 | 52 | 1005.0 |
| 20260505074137 | 12 | 315 | 6.4 | 14.5 | 0.00 | 0.05 | 0.00 | 50 | 1004.7 |
| 20260505073137 | 12 | 331 | 6.4 | 19.3 | 0.00 | 0.05 | 0.00 | 49 | 1004.3 |
| 20260505072137 | 12 | 272 | 4.8 | 16.1 | 0.00 | 0.05 | 0.00 | 48 | 1004.2 |
| 20260505071137 | 12 | 304 | 4.8 | 14.5 | 0.00 | 0.05 | 0.00 | 47 | 1004.0 |
| 20260505070137 | 12 | 238 | 8.0 | 19.3 | 0.00 | 0.05 | 0.00 | 48 | 1004.0 |
| 20260505065137 | 13 | 302 | 9.7 | 24.1 | 0.00 | 0.05 | 0.00 | 45 | 1003.9 |
| 20260505064137 | 13 | 306 | 6.4 | 20.9 | 0.00 | 0.05 | 0.00 | 44 | 1003.6 |
| 20260505063137 | 13 | 302 | 8.0 | 22.5 | 0.00 | 0.05 | 0.00 | 44 | 1003.4 |
| 20260505062137 | 13 | 298 | 6.4 | 16.1 | 0.00 | 0.05 | 0.00 | 45 | 1003.7 |
| 20260505061137 | 13 | 296 | 12.9 | 19.3 | 0.00 | 0.05 | 0.00 | 44 | 1003.6 |
| 20260505060137 | 13 | 292 | 8.0 | 19.3 | 0.00 | 0.05 | 0.00 | 43 | 1003.4 |
| 20260505055137 | 13 | 269 | 8.0 | 12.9 | 0.00 | 0.05 | 0.00 | 44 | 1003.2 |
| 20260505054137 | 14 | 290 | 6.4 | 17.7 | 0.00 | 0.05 | 0.00 | 43 | 1003.2 |
| 20260505053137 | 14 | 265 | 4.8 | 17.7 | 0.00 | 0.05 | 0.00 | 41 | 1003.2 |
| 20260505052137 | 14 | 300 | 11.3 | 22.5 | 0.00 | 0.05 | 0.00 | 42 | 1003.2 |
| 20260505051137 | 14 | 276 | 4.8 | 17.7 | 0.00 | 0.05 | 0.00 | 42 | 1003.1 |
| 20260505050137 | 14 | 301 | 9.7 | 16.1 | 0.00 | 0.05 | 0.00 | 41 | 1002.7 |
| 20260505041136 | 16 | 236 | 9.7 | 24.1 | 0.00 | 0.05 | 0.05 | 38 | 1002.5 |
| 20260505040136 | 16 | 281 | 11.3 | 25.7 | 0.00 | 0.05 | 0.05 | 39 | 1002.3 |
| 20260505035136 | 16 | 277 | 16.1 | 22.5 | 0.00 | 0.05 | 0.05 | 39 | 1002.3 |
| 20260505034136 | 16 | 294 | 14.5 | 24.1 | 0.00 | 0.05 | 0.05 | 40 | 1002.0 |
| 20260505033136 | 17 | 263 | 20.9 | 24.1 | 0.00 | 0.05 | 0.05 | 41 | 1001.9 |
| 20260505032137 | 17 | 274 | 9.7 | 24.1 | 0.00 | 0.05 | 0.05 | 40 | 1001.4 |
| 20260505030136 | 18 | 254 | 16.1 | 22.5 | 0.00 | 0.05 | 0.05 | 43 | 1001.5 |
| 20260505025137 | 18 | 281 | 14.5 | 25.7 | 0.00 | 0.05 | 0.05 | 43 | 1001.4 |
| 20260505024137 | 18 | 280 | 8.0 | 14.5 | 0.00 | 0.05 | 0.05 | 55 | 1001.2 |
| 20260505023136 | 18 | 283 | 9.7 | 19.3 | 0.00 | 0.05 | 0.05 | 58 | 1000.9 |
| 20260505022136 | 18 | 263 | 6.4 | 20.9 | 0.00 | 0.05 | 0.05 | 59 | 1000.8 |
| 20260505020136 | 18 | 229 | 17.7 | 29.0 | 0.00 | 0.05 | 0.05 | 58 | 1000.3 |
| 20260505015136 | 18 | 207 | 11.3 | 24.1 | 0.00 | 0.05 | 0.05 | 60 | 999.9 |
| 20260505013136 | 19 | 186 | 19.3 | 27.4 | 0.00 | 0.05 | 0.05 | 55 | 999.3 |
| 20260505011136 | 20 | 217 | 8.0 | 24.1 | 0.00 | 0.05 | 0.05 | 52 | 999.0 |
| 20260505010136 | 20 | 186 | 11.3 | 20.9 | 0.00 | 0.05 | 0.05 | 50 | 999.0 |
| 20260505005136 | 21 | 165 | 8.0 | 17.7 | 0.00 | 0.05 | 0.05 | 48 | 998.7 |
| 20260505004136 | 21 | 231 | 9.7 | 19.3 | 0.00 | 0.05 | 0.05 | 47 | 998.0 |
| 20260505003136 | 21 | 233 | 3.2 | 17.7 | 0.00 | 0.05 | 0.05 | 47 | 997.5 |
| 20260505001136 | 21 | 275 | 8.0 | 14.5 | 0.00 | 0.05 | 0.05 | 48 | 997.4 |
| 20260505000136 | 21 | 215 | 6.4 | 20.9 | 0.00 | 0.05 | 0.05 | 46 | 997.4 |
| 20260504235136 | 21 | 229 | 3.2 | 25.7 | 0.00 | 0.05 | 0.05 | 47 | 997.1 |
| 20260504234137 | 21 | 174 | 12.9 | 27.4 | 0.00 | 0.05 | 0.05 | 49 | 997.1 |
| 20260504233136 | 21 | 239 | 11.3 | 24.1 | 0.00 | 0.05 | 0.05 | 47 | 997.4 |
| 20260504232136 | 22 | 243 | 9.7 | 17.7 | 0.00 | 0.05 | 0.05 | 43 | 997.5 |
| 20260504231136 | 22 | 264 | 8.0 | 27.4 | 0.00 | 0.05 | 0.05 | 42 | 997.6 |